Location: Unspecified
(0.0000°N, 0.0000°E)
Time: 03:39:47
(UTC+00:00)

Vanguard 2 Rocket - Visible Passes

Search period start: 20 January 2017 00:00
Search period end: 30 January 2017 00:00
Orbit: 553 x 3329 km, 32.9° (Epoch: 19 January)

Date Brightness Start Highest point End Pass type
(mag) Time Alt. Az. Time Alt. Az. Time Alt. Az.
20 Jan 10.0 02:32:36 28° NNE 02:33:13 28° NE 02:47:53 10° E visible
20 Jan 9.6 04:38:27 22° NW 04:51:12 72° NE 05:11:40 10° ESE visible
20 Jan 7.9 18:37:00 10° W 18:40:07 20° NW 18:43:08 10° NNE visible
21 Jan 10.5 01:36:48 15° NE 01:36:48 15° NE 01:41:29 10° ENE visible
21 Jan 9.5 03:42:38 38° NNW 03:49:25 55° NE 04:08:57 10° ESE visible
22 Jan 9.6 02:46:51 39° NNE 02:48:05 39° NE 03:05:08 10° E visible
22 Jan 9.5 04:52:41 21° NW 05:05:48 88° SW 05:26:33 10° SE visible
23 Jan 10.2 01:51:03 24° ENE 01:51:03 24° ENE 02:00:05 10° E visible
23 Jan 9.2 03:56:54 42° NW 04:03:57 74° NE 04:24:22 10° ESE visible
24 Jan 9.2 03:01:06 53° NNE 03:02:37 55° NE 03:21:19 10° ESE visible
24 Jan 9.6 05:06:57 18° WNW 05:20:34 67° SW 05:41:01 10° SE visible
25 Jan 9.8 02:05:18 34° ENE 02:05:18 34° ENE 02:17:19 10° E visible
25 Jan 9.1 04:11:09 42° WNW 04:18:34 85° SW 04:39:12 10° SE visible
26 Jan 10.6 01:09:30 15° ENE 01:09:30 15° ENE 01:12:16 10° E visible
26 Jan 8.8 03:15:20 70° N 03:17:06 75° NE 03:36:41 10° ESE visible
26 Jan 9.9 05:21:10 13° W 05:35:40 51° SSW 05:55:13 10° SE visible
27 Jan 9.4 02:19:30 48° ENE 02:19:30 48° ENE 02:33:28 10° ESE visible
27 Jan 9.3 04:25:20 35° W 04:33:26 64° SSW 04:53:36 10° SE visible
28 Jan 10.3 01:23:39 22° E 01:23:39 22° E 01:29:29 10° E visible
28 Jan 8.7 03:29:29 70° W 03:31:45 81° SW 03:51:27 10° SE visible
28 Jan 10.2 05:36:22 10° W 05:51:14 38° SSW 06:09:20 10° SE visible
29 Jan 9.0 02:33:37 63° E 02:33:37 63° E 02:48:46 10° ESE visible
29 Jan 9.6 04:39:27 25° W 04:48:42 47° SSW 05:07:45 10° SE visible
